SCP
0 0 0 0 0 0 0 0 0 0 0 0 0 0 0 0 0 0 0 0 0 0 0 0 0 0 0 0 0 0 0 0 0 0 0 0 0 0 0 0 0 0 0
0 0 1 1 1 1 1 1 1 1 0 0 0 0 0 0 0 0 0 0 0 0 0 0 0 0 0 0 0 0 0 0 0 0 0 0 0 0 0 0 0 0 0
0 1 1 1 1 1 1 1 1 1 1 1 0 0 0 0 0 0 0 0 0 0 0 0 0 0 0 0 0 0 0 0 0 0 0 0 0 0 0 0 0 0 0
0 1 1 1 1 1 1 1 1 1 1 1 1 1 0 0 0 0 0 0 0 0 0 0 0 0 0 0 0 0 0 0 0 0 0 0 0 0 0 0 0 0 0
0 0 1 1 1 1 1 1 1 1 1 1 1 1 1 1 0 0 0 0 0 0 0 0 0 0 0 0 0 0 0 0 0 0 0 0 0 0 0 0 0 0 0
0 0 1 1 1 1 1 1 1 1 1 1 1 1 1 1 1 1 1 1 0 0 0 0 0 0 0 0 0 0 0 0 0 0 0 0 0 0 0 0 0 0 0
0 1 1 1 1 1 1 1 1 1 1 1 1 1 1 1 1 1 1 1 0 0 0 0 0 0 0 0 0 0 0 0 0 0 0 0 0 0 0 0 0 0 0
0 1 1 1 1 1 1 1 1 1 1 1 1 1 1 1 1 1 1 1 0 0 0 0 0 0 0 0 0 0 0 0 0 0 0 0 0 0 0 0 0 0 0
0 1 1 1 1 1 1 1 1 1 1 1 1 1 1 1 1 1 1 1 0 0 0 0 0 0 0 0 0 0 0 0 0 0 0 0 0 0 0 0 0 0 0
0 1 1 1 1 1 1 1 1 1 1 1 1 1 1 1 1 1 1 1 0 0 0 0 0 0 0 0 0 0 0 0 0 0 0 0 0 0 0 0 1 0 0
1 1 1 1 1 1 1 1 1 1 1 1 1 1 1 1 1 1 1 1 1 0 0 0 0 0 0 0 0 0 0 0 0 0 0 0 0 0 0 1 1 1 1
1 1 1 1 1 1 1 1 1 1 1 1 1 1 1 1 1 1 1 1 0 0 0 0 0 0 0 0 0 0 0 0 0 0 0 0 0 0 1 1 1 1 1
1 1 1 1 1 1 1 1 1 1 1 1 1 1 1 1 1 1 1 1 0 0 0 0 0 0 0 0 0 0 0 0 0 0 0 0 0 1 1 1 1 1 1
1 1 1 1 1 1 1 1 1 1 1 1 1 1 1 1 1 1 1 1 1 0 0 0 0 0 0 0 0 0 0 0 0 0 0 0 0 1 1 1 1 1 1
1 1 1 1 1 1 1 1 1 1 1 1 1 1 1 1 1 1 1 1 1 0 0 0 0 0 0 0 0 0 0 0 0 1 1 0 0 0 0 0 1 1 1
1 1 1 1 1 1 1 1 1 1 1 1 1 1 1 1 1 1 1 1 1 1 0 0 0 0 0 0 0 0 0 1 1 1 1 1 0 0 0 0 0 0 0
1 1 1 1 1 1 1 1 1 1 1 1 1 1 1 1 1 1 1 1 1 1 1 1 0 0 0 0 0 0 0 0 1 1 1 0 0 0 0 0 0 0 0
1 1 1 2 2 1 1 1 1 1 1 1 1 1 1 1 1 1 1 1 1 1 1 1 1 1 0 0 0 0 0 0 0 0 0 0 0 0 0 0 0 0 0
1 1 1 2 2 1 1 1 1 1 1 1 1 1 1 1 1 1 1 1 1 1 1 1 1 1 0 0 0 0 0 0 0 0 0 0 0 0 0 0 0 0 0
1 1 1 1 2 1 2 2 2 1 1 1 1 1 1 1 1 1 1 1 1 1 1 1 1 1 0 0 0 0 0 0 0 0 0 0 0 0 0 0 0 0 0
1 1 2 2 2 2 2 2 2 2 1 1 1 1 1 1 1 1 1 1 1 1 1 1 0 0 0 0 0 0 0 0 0 0 0 0 0 0 0 0 0 0 0
1 1 1 2 2 2 2 2 2 2 1 1 1 1 1 1 1 1 1 1 1 1 1 0 0 0 0 0 0 0 0 0 0 0 0 0 0 0 0 0 0 0 0
1 1 1 1 1 1 1 1 1 1 1 2 2 2 1 1 1 1 1 1 1 1 1 0 0 0 0 0 0 0 0 0 0 0 0 0 0 0 0 0 0 0 0
1 1 1 1 1 1 1 1 1 1 1 1 1 1 1 1 1 1 1 1 1 1 0 0 0 0 0 0 0 0 0 0 0 0 0 0 0 0 0 0 0 0 0
1 1 1 1 1 1 1 1 1 1 1 1 1 1 1 1 1 1 0 0 0 0 0 0 0 0 0 0 0 0 0 0 0 0 0 0 0 0 0 0 0 0 0
1 1 1 1 1 1 1 1 1 1 1 1 1 1 1 1 0 0 0 0 0 0 0 0 0 0 0 0 0 0 0 0 0 0 0 0 0 0 0 0 0 0 0
Wind_Speed
15 15 14 14 13 13 13 13 12 11 9 7 7 7 7 6 5 5 5 6 5 5 5 3 4 4 3 3 3 3 4 3 2 2 3 3 5 4 4 4 4 5 5
14 15 15 15 15 15 14 14 13 12 11 8 7 5 5 5 5 4 5 6 6 6 6 5 5 5 3 4 4 4 3 3 3 3 3 3 3 5 5 4 5 5 5
15 16 16 16 16 16 15 13 14 13 12 10 8 6 5 5 5 6 6 6 7 7 5 5 6 4 5 4 5 5 5 4 4 4 3 3 1 1 3 4 4 4 4
14 15 16 17 17 16 15 14 14 13 12 12 10 10 8 8 7 5 5 7 7 7 7 7 6 5 5 4 6 5 4 5 5 3 4 4 4 4 2 3 4 5 6
14 15 16 17 16 16 15 14 14 14 13 13 11 11 10 8 6 6 6 6 6 7 7 7 6 6 5 5 5 4 5 5 5 5 4 4 4 6 5 3 3 3 5
13 14 14 14 15 15 15 14 14 14 14 14 13 13 12 10 8 8 7 7 6 6 8 7 6 7 6 5 6 6 7 6 5 5 5 4 4 4 4 5 5 4 3
12 13 14 15 15 16 16 14 15 14 14 14 14 13 12 11 10 9 8 7 6 6 7 7 7 7 6 6 6 7 6 6 6 7 6 5 5 4 4 5 5 5 4
11 12 14 14 15 16 16 15 15 14 14 14 13 12 12 10 9 10 8 8 6 6 6 7 7 7 7 7 6 6 6 6 7 8 7 6 6 5 5 5 5 6 5
9 11 13 14 15 15 16 16 15 14 14 13 13 12 12 11 9 8 9 7 7 6 7 7 7 7 7 7 6 5 6 6 7 7 8 7 6 6 6 5 5 6 6
7 9 11 12 13 14 14 15 14 14 13 13 12 10 11 11 10 9 9 8 7 6 7 7 7 7 7 7 7 7 6 7 7 6 6 7 7 5 6 6 6 6 7
5 7 9 11 12 12 13 13 13 13 12 12 11 10 10 10 10 9 9 8 7 7 7 7 7 7 7 7 6 7 7 8 7 7 7 8 8 6 6 6 6 6 7
3 5 8 10 11 12 12 12 12 12 12 11 10 10 10 9 9 9 9 8 8 7 7 7 7 7 7 6 7 8 8 8 8 8 8 9 7 7 7 6 7 6 6
3 5 6 8 9 10 10 10 10 11 10 10 10 10 9 9 9 8 8 8 8 8 7 7 7 7 6 7 7 7 8 8 8 7 7 8 7 7 6 7 7 6 6
3 4 5 7 8 8 9 9 9 9 9 9 10 9 9 8 7 7 7 7 7 7 6 7 7 6 6 6 6 7 7 7 7 6 7 7 7 7 7 6 7 7 7
2 3 4 6 7 8 9 9 9 9 9 9 8 8 7 7 6 6 6 6 6 6 6 6 6 5 5 5 5 6 6 5 6 6 6 6 5 5 4 5 5 6 6
2 3 4 5 7 8 8 8 8 8 8 8 7 7 7 6 6 6 5 5 5 5 5 5 4 4 4 1 1 4 5 5 5 6 5 5 5 4 4 5 5 6 7
1 2 3 4 6 7 7 7 7 7 7 7 6 7 7 6 6 6 6 5 5 5 4 4 4 4 2 1 2 4 5 5 4 4 4 4 3 4 4 4 4 4 5
0 1 2 3 4 6 7 7 8 8 7 6 6 6 6 6 6 6 5 5 4 4 4 4 3 3 1 1 1 2 4 3 2 3 3 3 4 4 4 4 3 3 2
1 1 2 3 4 6 7 8 8 8 7 7 6 6 6 6 6 6 5 5 4 4 3 3 2 2 1 2 0 1 2 1 1 1 2 3 2 3 3 3 3 2 2
1 1 2 3 5 6 7 8 8 8 7 6 6 5 5 5 5 6 6 5 5 4 4 3 2 2 2 3 1 1 1 1 1 1 1 3 3 3 2 2 2 2 2
3 3 4 4 4 5 6 7 7 7 6 6 6 6 5 5 5 5 5 5 5 4 4 4 3 3 3 4 3 2 0 0 1 1 2 2 3 3 2 1 2 3 3
4 5 5 5 5 5 5 6 5 5 6 7 7 6 6 5 4 5 5 5 5 6 5 4 4 3 3 4 4 4 3 2 2 2 2 3 3 2 1 1 2 3 3
5 4 5 6 5 5 5 6 5 5 6 7 7 6 6 5 4 4 5 5 4 3 4 4 3 3 3 4 5 5 3 3 2 3 4 3 2 2 2 1 2 2 1
5 5 5 6 5 5 5 6 6 6 7 7 7 7 7 6 6 4 3 3 3 3 3 3 3 3 3 3 2 2 3 4 3 2 3 2 1 2 2 3 2 1 2
5 5 5 6 5 5 5 5 5 6 7 7 7 7 7 7 7 7 6 5 6 5 3 3 3 2 3 3 4 2 2 2 2 1 2 2 2 3 3 3 3 3 3
5 5 6 6 6 5 6 5 5 6 7 7 6 5 6 6 6 7 8 14 11 13 12 10 7 7 7 6 7 6 6 5 3 2 3 3 3 3 3 3 3 3 4
Wind_Direction
191 189 189 190 187 187 187 187 189 184 188 190 195 196 197 199 200 203 201 208 212 204 221 226 199 228 222 224 214 220 205 225 234 245 237 227 223 212 213 224 223 202 203
192 189 189 191 192 190 191 190 192 188 194 193 199 202 206 206 205 212 201 212 216 216 213 221 221 217 220 220 224 230 246 237 222 254 260 242 206 213 210 207 217 225 214
195 191 192 194 195 193 194 195 194 191 196 193 194 192 194 213 206 206 205 211 216 220 233 225 235 226 231 220 223 220 231 242 236 244 269 286 290 231 188 215 216 218 230
199 195 194 195 197 196 194 196 194 194 195 196 202 200 204 209 211 211 206 204 211 219 221 227 230 235 236 224 231 220 234 243 246 226 241 268 307 295 255 210 202 209 223
202 198 198 197 198 196 194 194 193 196 197 200 201 207 217 219 214 211 209 215 210 219 223 224 227 230 237 233 244 234 239 238 246 247 244 241 242 252 270 274 254 225 224
203 199 197 195 195 195 195 194 192 196 197 200 204 210 218 222 222 217 212 214 212 216 218 223 225 230 236 231 232 234 230 243 252 257 255 252 253 257 261 271 266 253 234
203 197 193 193 191 192 192 192 192 196 197 200 205 209 216 221 223 224 221 225 222 216 213 222 225 233 233 236 235 229 240 237 240 246 251 250 251 261 267 273 280 281 260
201 197 193 191 191 190 189 190 192 196 197 201 205 209 212 219 223 221 228 223 229 227 215 221 227 232 234 234 232 238 230 233 240 247 253 258 257 261 257 261 274 277 267
199 197 193 190 190 188 189 190 190 193 196 200 202 207 210 219 224 219 223 230 229 230 223 228 230 229 228 232 231 236 240 236 239 244 238 247 253 251 256 255 257 267 276
192 191 190 190 189 188 186 188 189 191 193 197 201 203 208 213 218 222 223 230 231 231 229 231 231 230 229 228 231 237 234 238 242 250 259 255 257 257 255 256 254 254 264
185 185 184 185 184 184 182 184 187 188 191 196 199 205 205 208 212 217 219 219 224 225 228 230 231 232 233 231 232 240 237 238 245 247 247 249 259 261 259 251 250 249 251
174 174 174 175 178 180 181 182 186 186 189 192 196 201 204 207 211 214 215 211 215 221 224 227 229 232 232 231 233 240 240 240 245 251 254 255 251 250 260 260 255 254 253
163 163 167 171 175 176 177 179 184 185 185 185 193 198 202 205 210 213 212 212 213 218 220 222 228 232 235 234 235 239 244 245 249 253 255 258 258 255 256 258 260 259 255
147 156 162 169 172 173 174 176 179 180 180 182 191 193 198 201 206 210 206 208 211 215 216 219 224 227 234 235 237 239 242 248 252 256 258 260 259 257 259 257 258 260 261
143 153 167 173 174 173 173 176 177 177 179 181 187 190 192 191 195 197 198 200 203 205 206 214 220 224 228 234 239 241 241 245 252 257 259 262 270 281 276 273 269 268 262
170 162 165 176 179 178 176 174 174 174 177 180 182 179 180 179 184 188 192 191 192 195 197 204 214 228 240 210 257 262 259 257 257 261 266 267 260 252 241 257 275 283 272
192 170 166 176 179 179 173 170 164 162 166 171 172 172 178 175 176 182 182 181 179 179 191 200 212 229 249 123 216 242 257 261 267 269 271 275 285 279 263 238 233 258 266
238 176 173 162 167 165 163 160 153 154 156 160 164 165 171 174 171 170 172 174 171 175 185 193 201 214 188 109 224 253 237 257 277 284 287 283 284 290 294 279 267 273 282
317 187 167 156 152 155 154 152 150 148 149 152 157 158 164 165 162 162 167 165 162 160 163 159 168 182 98 73 98 259 217 215 257 306 336 308 297 341 309 266 265 276 282
41 124 136 133 138 146 151 150 149 146 145 145 149 151 156 158 155 157 158 151 152 155 155 137 127 109 88 78 73 274 227 197 185 105 54 38 18 21 352 279 275 281 296
70 92 101 105 116 135 144 145 143 143 144 140 138 135 135 140 139 142 145 145 145 141 135 128 118 98 75 83 67 28 304 75 99 76 56 46 49 31 1 322 309 302 295
75 83 90 89 97 119 132 132 130 128 129 130 131 132 133 136 134 135 136 139 142 141 137 130 116 100 86 72 72 65 51 22 75 63 51 49 65 74 39 360 325 309 290
74 82 91 86 83 94 113 117 114 120 125 124 125 125 121 118 120 129 132 136 138 136 133 129 119 110 100 95 95 100 92 71 79 71 59 43 49 94 94 46 321 316 328
68 73 84 85 79 81 92 102 111 119 122 119 115 111 110 105 91 83 92 95 93 106 114 110 110 108 95 75 76 94 107 122 125 110 114 131 90 63 45 44 48 32 1
71 74 79 85 83 83 88 98 109 118 117 115 111 112 108 102 91 77 56 63 56 46 59 80 85 83 83 47 29 37 61 52 65 68 65 42 45 46 46 44 35 25 21
77 79 79 83 85 85 87 94 106 119 120 117 116 112 111 110 110 106 87 61 66 62 58 54 59 70 68 70 64 57 49 36 13 56 64 48 37 30 28 34 35 31 22